PILOTS ONLINE: 208    ATC ONLINE: 16

EGDX

MOD St. Athan

Location

IATA DGX
City St. Athan
Country  United Kingdom
Latitude 51° 24' 17" N
Longitude 3° 26' 8" W
Elevation 163 ft
Type Medium Airport

Map

Weather

METAR
2014/10/21 07:50
EGDX 210750Z 29022G36KT 9999 FEW017 SCT032 11/05 Q1006 BLU
TAF
No TAF available

Runways

08/26 5988 ft / 141 ft

Outbound flights

Callsign Flying to Pilot ATD/STD ETA Aircraft

Inbound flights

Callsign Flying from Pilot ATD ETA Aircraft